RH
95 97 97 98 98 98 96 97 97 98 95 91 86 92 87 90 83 78 82 88 83 76 68 64 68 69 70 68 72 66 66 66 69 70 73 74 69 67 70 72 72 71 71
93 94 93 95 96 96 97 95 98 98 98 97 96 89 88 91 80 81 80 84 86 81 74 67 68 66 65 67 73 64 64 70 70 71 73 74 77 73 77 75 73 72 70
93 93 91 90 89 97 96 97 97 97 97 96 94 92 88 92 83 79 83 81 84 85 81 77 73 68 64 65 68 65 66 67 67 70 73 74 75 77 77 76 74 72 69
92 94 95 96 97 96 96 96 96 97 96 96 96 96 90 92 80 75 77 82 88 75 81 81 77 71 72 68 67 65 66 67 67 70 73 74 75 75 76 76 75 72 70
92 93 94 95 95 97 96 96 98 95 96 96 97 96 95 93 76 67 77 81 86 89 87 84 83 80 77 70 69 66 67 66 67 67 70 73 74 75 76 76 76 75 72
92 94 97 97 96 97 97 96 96 96 96 96 94 91 96 93 66 72 74 75 79 82 88 85 84 82 84 81 74 66 65 66 68 69 70 70 74 76 76 76 76 75 74
92 91 94 96 95 96 93 95 96 98 99 97 96 99 98 87 68 68 74 78 76 76 86 85 87 89 83 84 78 70 65 65 67 68 71 73 75 79 80 75 72 72 72
92 94 94 95 95 96 97 97 96 98 97 97 93 94 99 92 78 69 72 72 76 74 80 80 83 84 85 87 90 78 70 67 67 68 73 77 80 81 79 75 74 74 73
89 90 94 95 96 94 96 97 96 94 97 98 96 89 89 82 76 79 77 76 78 78 77 78 78 75 80 83 86 84 86 83 78 74 76 78 80 82 82 79 79 78 76
95 92 94 95 96 95 96 97 95 94 93 95 98 88 70 66 72 86 80 76 74 75 79 78 77 73 75 79 82 85 88 87 85 83 79 79 81 82 83 83 83 83 83
96 96 94 96 96 95 94 94 96 96 94 92 92 86 75 71 74 66 86 86 84 74 72 73 74 73 71 74 80 80 86 88 87 85 84 84 83 83 84 84 84 84 85
95 94 93 93 94 94 94 94 94 93 94 91 93 87 73 67 72 68 77 81 76 80 71 76 75 73 71 75 75 79 86 89 88 85 84 84 84 85 87 86 86 86 86
98 98 96 97 97 94 93 93 94 94 93 94 93 92 78 69 59 67 76 72 77 86 80 77 74 76 67 77 75 80 86 88 89 87 86 84 84 85 85 86 87 88 88
90 88 95 94 94 94 94 93 94 95 93 95 92 90 87 81 62 62 73 71 86 87 90 82 83 78 80 68 72 84 82 88 89 90 89 89 89 88 88 87 86 85 84
97 97 96 95 97 96 95 95 96 96 95 93 91 93 92 81 80 78 80 67 67 79 78 86 81 70 71 84 80 81 82 88 89 90 91 91 90 90 90 90 89 89 88
95 98 98 97 97 96 96 97 97 95 96 93 91 92 90 91 89 88 91 86 79 80 81 80 84 91 82 84 86 86 84 89 92 89 90 90 92 91 91 91 92 92 92
97 98 98 98 98 97 96 97 97 95 96 94 92 92 90 93 88 90 91 90 89 86 81 78 78 87 90 90 87 90 92 89 85 92 91 92 92 93 93 94 94 94 94
97 97 98 99 98 98 97 97 98 96 94 96 95 96 92 92 92 89 88 87 91 87 87 82 83 86 85 85 85 90 82 71 77 81 91 96 96 95 96 96 96 95 95
97 98 98 98 98 99 97 96 94 95 92 93 95 94 92 92 94 92 88 88 89 88 88 88 86 85 84 85 86 86 83 81 72 87 97 96 95 94 95 95 95 95 95
96 96 94 96 97 98 99 98 97 97 97 96 96 96 94 95 94 95 93 91 95 93 95 94 94 94 90 86 84 88 92 91 94 80 92 93 92 92 92 93 94 94 94
93 92 93 96 97 97 95 98 97 97 97 99 98 96 97 97 99 96 89 95 93 93 95 95 96 96 95 93 94 95 96 98 97 95 96 96 95 95 95 92 90 89 89
94 94 95 94 96 88 98 100 99 99 97 97 98 98 95 100 99 99 99 100 99 94 96 96 95 95 94 99 97 98 98 98 100 96 97 99 96 98 96 95 90 88 87
92 94 94 92 95 93 98 98 100 97 97 98 98 98 98 93 98 95 97 96 96 95 99 98 98 99 98 98 96 98 99 99 100 98 98 100 97 98 96 91 86 84 83
95 95 95 95 95 94 99 99 98 94 95 96 96 96 96 96 99 94 94 97 97 97 97 94 97 99 100 100 97 98 99 100 99 96 98 99 98 99 98 96 80 78 76
95 95 94 94 96 97 97 95 92 92 94 97 96 97 96 98 98 94 94 97 98 98 97 92 93 94 95 94 96 97 100 100 100 99 96 99 98 99 98 98 96 79 77
94 92 94 95 97 97 96 95 91 92 96 96 96 97 98 98 96 94 94 94 97 99 97 96 95 94 92 92 88 96 98 98 98 99 93 98 98 99 99 98 98 99 100
Wind_Speed
7 7 6 6 7 7 8 8 7 4 5 6 7 5 7 6 9 7 6 14 17 19 20 18 19 19 19 18 16 17 18 16 17 16 15 13 14 13 12 12 11 10 10
8 8 8 7 7 8 7 8 7 5 3 4 2 4 5 5 9 11 8 9 14 16 17 20 19 19 19 19 16 17 16 16 17 16 15 13 13 14 12 12 11 10 9
11 10 9 9 9 8 10 7 5 4 4 5 8 7 7 7 9 11 9 7 9 12 15 16 17 17 17 17 17 16 16 15 15 15 15 14 13 13 14 13 12 11 10
11 10 8 8 9 9 9 8 8 7 7 7 6 7 7 6 10 12 10 8 6 7 10 15 16 15 16 17 18 17 16 16 15 16 15 14 14 13 13 12 12 11 11
12 10 8 8 11 9 10 9 8 9 9 7 6 6 4 3 11 11 11 10 8 6 4 12 14 14 15 16 18 18 18 16 16 15 15 15 14 13 13 12 12 12 11
10 9 8 9 10 9 9 9 10 8 6 9 8 7 5 3 9 10 12 9 9 9 6 7 8 8 14 15 17 17 18 18 17 16 16 15 15 14 13 13 13 13 12
10 10 8 10 10 10 11 11 7 9 3 9 9 2 2 3 11 11 10 9 10 9 7 7 6 4 7 15 17 18 18 18 18 17 16 16 15 14 14 15 14 15 14
9 8 10 10 11 9 10 11 10 5 3 8 8 6 4 2 1 10 9 10 11 8 9 10 10 8 7 6 7 17 18 19 19 18 16 15 15 15 15 16 15 15 15
11 11 10 10 11 9 9 12 12 11 6 7 5 4 5 5 7 2 8 8 10 7 8 10 11 11 10 8 10 12 14 13 14 17 18 17 17 17 17 17 17 17 17
10 10 11 10 12 9 11 10 11 10 8 12 7 8 4 7 10 5 3 8 10 10 9 8 10 11 10 8 11 13 15 15 14 12 14 18 19 19 19 19 18 18 18
10 11 11 11 11 9 11 13 13 12 11 11 10 9 3 3 3 8 6 4 4 10 10 10 10 9 10 11 8 10 16 17 15 14 14 13 15 19 19 19 19 19 19
9 11 11 12 12 12 13 12 13 15 13 12 8 9 5 9 8 8 5 5 9 7 9 9 9 9 9 9 12 15 18 16 17 17 17 17 17 16 16 19 21 22 21
6 9 12 11 10 11 14 13 13 14 15 12 14 8 5 6 10 6 5 8 5 2 3 4 6 7 8 6 8 15 17 17 17 18 18 18 18 19 19 20 21 20 21
10 11 10 10 13 14 14 15 12 12 15 13 17 12 5 4 8 7 6 8 3 3 2 5 3 5 5 8 9 15 8 16 17 17 17 15 17 17 18 19 20 21 21
6 8 11 12 11 13 15 16 13 14 14 16 15 12 6 9 5 6 5 8 7 7 9 5 4 8 8 5 8 7 7 13 15 15 15 16 18 19 19 19 20 19 20
5 5 7 10 12 13 13 14 10 13 13 13 12 14 11 5 4 5 5 4 4 4 5 2 4 4 8 5 7 7 7 10 14 17 18 18 17 17 17 19 15 15 18
4 6 6 6 9 12 14 13 10 13 14 15 15 15 14 6 4 4 4 4 4 4 5 1 2 1 3 5 3 5 5 6 6 14 15 16 18 20 14 8 10 11 12
5 5 5 6 6 9 11 13 13 13 15 14 15 13 12 6 7 5 4 6 5 4 4 5 4 2 3 5 5 4 4 5 7 11 15 6 3 4 6 5 4 3 5
5 5 5 4 3 4 11 11 14 13 15 13 12 13 12 11 8 3 2 2 4 4 3 3 5 3 3 2 3 4 5 7 5 6 16 16 17 16 14 13 13 11 10
6 5 5 3 4 4 4 8 10 13 11 12 10 10 11 8 6 6 4 5 4 6 5 4 3 3 3 3 3 4 4 3 2 7 14 12 13 15 15 13 12 12 12
6 6 5 4 4 4 4 7 7 11 12 10 8 7 5 4 4 5 4 6 7 6 4 5 3 3 3 3 4 2 4 3 3 1 5 4 4 5 5 9 11 11 11
4 6 4 6 7 5 10 7 5 4 7 7 6 4 4 5 5 3 11 15 5 9 8 6 4 6 5 2 1 2 3 3 3 4 2 3 2 4 4 3 10 10 11
10 11 11 10 9 7 8 5 3 3 3 2 2 4 4 4 5 10 14 18 17 16 11 1 4 2 2 2 2 1 1 2 2 3 2 3 2 4 3 4 9 10 10
11 9 11 10 9 9 8 12 16 12 11 11 9 8 6 6 4 10 10 12 12 11 9 8 10 7 5 1 2 2 2 5 5 5 4 2 2 2 1 2 6 6 5
11 11 10 11 11 11 15 13 16 12 13 13 11 9 5 5 12 16 14 15 13 12 16 23 21 18 17 17 10 2 3 2 3 2 5 1 1 2 2 2 3 8 4
12 10 13 12 15 12 17 14 13 9 13 9 10 11 18 13 15 13 13 12 13 8 8 9 9 12 13 12 14 7 2 4 2 3 3 2 2 1 1 2 2 2 2
Wind_Direction
152 142 143 141 143 149 152 161 176 178 206 165 203 192 164 156 152 150 158 155 153 157 160 163 160 162 160 156 160 156 147 151 148 146 142 142 143 144 141 138 137 135 134
155 150 151 151 149 160 158 165 180 176 187 147 205 194 182 179 150 153 158 160 155 161 161 164 165 165 162 167 159 163 160 161 154 153 152 147 146 150 147 149 150 150 152
160 156 158 161 161 159 158 153 159 180 174 182 208 205 203 194 153 155 149 158 162 158 159 167 165 172 171 169 162 168 169 170 166 164 160 159 156 155 159 163 166 167 170
157 157 161 156 158 158 167 177 175 181 194 193 193 199 201 194 164 155 157 159 156 165 165 161 166 173 174 177 170 173 178 178 178 173 172 170 172 172 173 176 180 182 186
160 157 163 161 159 161 175 177 184 184 187 193 190 198 190 230 165 153 158 161 161 154 159 167 168 176 176 184 180 180 183 187 188 188 183 184 185 185 188 191 196 198 202
161 151 153 157 163 168 174 180 182 187 189 184 178 191 184 201 162 158 165 163 168 163 155 168 175 182 181 183 184 188 190 192 196 196 196 196 195 196 200 204 208 211 216
159 164 163 162 172 176 183 180 171 178 169 189 147 104 177 184 175 164 160 165 166 166 162 167 167 175 193 185 189 191 202 200 201 204 205 204 204 203 206 211 214 218 221
170 169 165 173 179 180 173 171 177 165 157 176 164 148 154 199 215 155 157 167 169 168 171 176 178 177 187 192 191 194 206 210 206 206 209 208 206 206 210 218 224 229 231
185 180 172 175 179 183 188 182 176 175 168 167 164 161 150 181 145 179 171 172 170 177 179 182 185 189 190 191 194 200 204 215 219 209 207 209 210 211 213 219 222 227 233
180 184 176 177 184 183 184 186 174 178 168 179 188 225 240 152 168 160 175 186 178 184 187 186 191 196 191 193 193 195 204 209 216 222 220 211 212 215 218 221 226 229 233
182 191 189 181 184 179 185 181 179 182 179 180 196 194 182 141 129 162 167 164 182 194 193 189 190 196 191 194 194 201 203 207 212 216 221 233 227 221 222 227 231 234 237
188 196 195 196 196 193 190 193 186 181 180 183 180 200 176 170 178 166 164 186 192 194 187 187 189 197 198 186 193 196 200 203 209 217 219 224 231 235 231 231 233 235 238
186 192 188 191 193 194 193 183 192 186 184 181 182 191 193 175 176 173 160 197 183 173 197 210 193 188 197 190 187 186 199 198 204 213 218 221 229 233 235 238 240 242 244
196 201 202 195 203 198 197 197 189 186 183 184 183 192 188 197 182 179 168 175 153 196 173 190 203 193 194 198 202 189 180 193 204 211 217 219 226 233 234 237 241 244 249
166 177 199 200 203 202 199 193 188 186 183 187 185 186 185 213 184 182 174 178 174 177 204 203 165 207 202 177 197 189 191 192 203 210 215 220 227 230 233 234 237 241 247
138 168 206 209 205 204 193 193 180 178 184 184 184 187 194 210 193 146 172 137 137 142 171 158 183 196 194 178 187 191 201 192 211 214 217 219 224 229 235 240 244 246 248
165 199 215 229 215 209 198 182 176 180 182 180 178 180 191 190 201 167 155 126 116 125 124 237 115 157 129 168 160 188 194 212 221 224 230 232 230 232 248 255 253 260 262
186 189 198 201 214 199 177 183 167 172 179 181 173 163 185 176 197 194 164 152 144 142 126 183 196 163 169 189 187 178 208 221 229 233 233 273 109 121 106 84 66 7 319
175 164 171 161 133 188 181 187 185 177 174 172 164 171 178 184 183 170 133 158 145 132 97 157 215 196 195 147 190 212 216 237 245 82 79 79 86 85 78 72 67 62 67
160 162 160 145 130 91 118 152 148 153 148 149 149 157 163 172 159 162 185 197 160 168 171 180 190 200 219 219 208 203 247 213 64 76 69 86 81 71 77 81 84 77 77
164 167 152 121 92 78 41 103 128 146 143 132 141 147 167 184 187 212 201 188 173 180 182 195 190 194 202 197 205 206 212 134 83 50 115 94 101 99 71 71 75 74 78
161 169 168 139 74 58 2 359 123 107 119 131 148 154 173 197 236 234 92 72 75 187 189 195 211 213 211 129 101 157 149 154 184 16 58 108 78 85 85 69 83 77 70
66 64 59 64 59 27 359 4 202 148 122 104 155 200 174 95 94 122 97 86 68 55 52 93 190 82 125 65 98 345 269 96 58 29 316 88 63 84 68 80 81 70 62
60 61 55 51 47 21 49 82 92 81 75 62 54 49 80 94 90 127 103 83 71 58 47 62 73 76 64 25 198 92 108 96 87 47 356 89 25 80 83 61 88 79 74
61 56 54 50 47 34 38 72 92 89 82 70 56 52 60 84 108 113 107 101 91 83 79 80 77 67 58 49 47 89 82 133 115 72 6 73 78 121 156 180 214 203 175
59 59 56 46 49 52 49 63 83 95 91 81 68 55 59 84 88 97 105 109 100 93 92 81 70 59 52 51 52 47 35 87 115 102 331 73 36 83 166 203 196 205 263